Back to catalog

STARLINK-4149

AliveCommunicationsVLEO
NORAD 53290·PAYLOAD·🇺🇸 United States

Launched Jul 24, 2022 from Cape Canaveral Space Force Station

Loading…

Next Passes (next 24 hours)

TLE

FreshSource: CelesTrak SupGP

Epoch: Sep 14, 2026, 21:13 UTC

1 53290C 22086BA  26257.88451389  .00057227  00000+0  33334-2 0  2572
2 53290  53.2158  53.7921 0001585 119.0126 297.8690 15.11485843    13

Track STARLINK-4149 in real time with AllMySat

Download on the App Store